CW6761 Aldeanueva de Vera ES current weather conditions

sailwx.info

Wind from 333

Air temperature 15.0° C
Dewpoint 11.0° C

Last reported at 2020-Aug-12 05:09 UTC.
Time now 2020-Aug-12 05:59 UTC

Location: N 40°08' W 005°42'.
View on Google Maps.

See reports from other nearby stations

  
Tides and Currents Weather Stations Pressure Air Temp Water Temp Dewpoint Dewpoint Depression Visibility Wind Speed Wind Dir Waves Ship Positions
date/time (UTC)wind fromknots sea level pressurealtimeterstation pressurevisibilityair tempwater tempwave heightnotes
2020-Aug-12 05:09 333 15.0
2020-Aug-12 05:04 333 15.0
2020-Aug-12 04:59 333 15.0
2020-Aug-12 04:54 333 15.0
2020-Aug-12 04:49 333 0 15.0
2020-Aug-12 04:44 333 0 15.0
2020-Aug-12 04:39 320 15.0
2020-Aug-12 04:34 319 15.0
2020-Aug-12 04:29 323 15.0
2020-Aug-12 04:24 323 15.0
2020-Aug-12 04:19 323 15.6
2020-Aug-12 04:14 323 15.6
2020-Aug-12 04:09 323 15.6
2020-Aug-12 04:04 323 15.6
2020-Aug-12 03:59 323 15.6
2020-Aug-12 03:54 323 15.6
2020-Aug-12 03:49 323 15.6
2020-Aug-12 03:44 323 15.6
2020-Aug-12 03:39 323 0 15.0
2020-Aug-12 03:34 328 0 15.0
2020-Aug-12 03:29 329 15.0
2020-Aug-12 03:24 333 15.0
2020-Aug-12 03:19 333 15.0
2020-Aug-12 03:14 333 15.0
2020-Aug-12 03:09 333 0 15.0
2020-Aug-12 03:04 355 0 15.0
2020-Aug-12 02:59 324 15.0
2020-Aug-12 02:54 317 15.0
2020-Aug-12 02:49 330 0 15.0
2020-Aug-12 02:44 332 0 15.0
2020-Aug-12 02:39 325 0 15.0
2020-Aug-12 02:34 332 15.0
2020-Aug-12 02:29 331 15.0
2020-Aug-12 02:24 330 15.0
2020-Aug-12 02:19 324 15.0
2020-Aug-12 02:14 319 15.0
2020-Aug-12 02:09 318 15.6
2020-Aug-12 02:04 316 15.6
2020-Aug-12 01:59 317 15.6
2020-Aug-12 01:54 317 15.6
2020-Aug-12 01:49 317 15.6
2020-Aug-12 01:44 317 15.6
2020-Aug-12 01:39 317 15.6
2020-Aug-12 01:34 317 16.1
2020-Aug-12 01:29 317 16.1
2020-Aug-12 01:24 317 16.1
2020-Aug-12 01:19 317 16.1
2020-Aug-12 01:14 317 16.1
2020-Aug-12 01:09 317 16.1
2020-Aug-12 01:04 316 16.1
2020-Aug-12 00:54 316 16.1
2020-Aug-12 00:49 316 16.1
2020-Aug-12 00:44 316 16.1
2020-Aug-12 00:39 316 16.7
2020-Aug-12 00:34 316 16.7
2020-Aug-12 00:29 316 16.7
2020-Aug-12 00:24 316 16.7
2020-Aug-12 00:19 316 16.7
2020-Aug-12 00:14 316 16.7
2020-Aug-12 00:09 316 16.7
2020-Aug-12 00:04 316 16.7
2020-Aug-11 23:59 317 16.7
2020-Aug-11 23:49 317 17.2
2020-Aug-11 23:44 317 17.2
2020-Aug-11 23:39 316 17.2
2020-Aug-11 23:34 316 17.2
2020-Aug-11 23:29 316 17.8
2020-Aug-11 23:24 314 17.8
2020-Aug-11 23:19 314 17.8
2020-Aug-11 23:14 314 17.8
2020-Aug-11 23:09 314 0 17.8
2020-Aug-11 23:04 313 1 17.8
2020-Aug-11 22:59 317 0 17.8
2020-Aug-11 22:54 342 17.8
2020-Aug-11 22:49 348 17.8
2020-Aug-11 22:44 348 17.8
2020-Aug-11 22:39 348 17.8
2020-Aug-11 22:34 348 0 17.8
2020-Aug-11 22:29 332 0 17.8
2020-Aug-11 22:24 317 0 17.8
2020-Aug-11 22:19 344 1 17.8
2020-Aug-11 22:14 329 1 17.8
2020-Aug-11 22:09 316 0 17.8
2020-Aug-11 22:04 330 0 17.8
2020-Aug-11 21:59 338 2 17.8
2020-Aug-11 21:54 337 1 17.8
2020-Aug-11 21:49 342 17.8
2020-Aug-11 21:44 024 18.3
2020-Aug-11 21:39 064 18.3
2020-Aug-11 21:34 082 0 18.3
2020-Aug-11 21:29 036 0 18.3
2020-Aug-11 21:24 053 18.3
2020-Aug-11 21:19 111 18.3
2020-Aug-11 21:14 126 17.8
2020-Aug-11 21:09 124 17.8
2020-Aug-11 21:04 247 18.3
2020-Aug-11 20:59 247 18.3
2020-Aug-11 20:54 247 18.3
2020-Aug-11 20:49 009 18.3
2020-Aug-11 20:44 009 18.3
2020-Aug-11 20:39 009 18.3
2020-Aug-11 20:34 034 18.3
2020-Aug-11 20:29 034 18.3
2020-Aug-11 20:24 059 18.9
2020-Aug-11 20:19 063 18.9
2020-Aug-11 20:14 063 18.9
2020-Aug-11 20:09 063 18.9
2020-Aug-11 20:04 063 19.4
2020-Aug-11 19:59 063 19.4
2020-Aug-11 19:54 065 19.4
2020-Aug-11 19:49 065 19.4
2020-Aug-11 19:44 055 19.4
2020-Aug-11 19:39 052 20.0
2020-Aug-11 19:34 052 20.0
2020-Aug-11 19:29 052 20.0
2020-Aug-11 19:24 061 20.0
2020-Aug-11 19:19 061 20.0
2020-Aug-11 19:14 061 20.6
2020-Aug-11 19:09 061 20.6
2020-Aug-11 19:04 061 20.6
2020-Aug-11 18:59 061 20.6
2020-Aug-11 18:49 061 21.1
2020-Aug-11 18:44 089 21.1
2020-Aug-11 18:39 090 21.1
2020-Aug-11 18:34 163 21.7
2020-Aug-11 18:29 163 21.7
2020-Aug-11 18:24 150 21.7
2020-Aug-11 18:19 150 21.7
2020-Aug-11 18:14 150 21.7
2020-Aug-11 18:09 150 21.7
2020-Aug-11 18:04 152 21.7
2020-Aug-11 17:59 152 21.7
2020-Aug-11 17:54 152 21.7
2020-Aug-11 17:49 152 21.7
2020-Aug-11 17:44 153 21.7
2020-Aug-11 17:39 153 0 21.7
2020-Aug-11 17:34 181 0 21.7
2020-Aug-11 17:24 138 0 21.7
2020-Aug-11 17:14 179 21.7
2020-Aug-11 17:09 180 21.7
2020-Aug-11 17:04 179 21.7
2020-Aug-11 16:59 179 21.7
2020-Aug-11 16:54 134 21.7
2020-Aug-11 16:49 134 21.7
2020-Aug-11 16:44 134 0 21.7
2020-Aug-11 16:39 134 0 21.1
2020-Aug-11 16:34 153 21.1
2020-Aug-11 16:29 063 21.1
2020-Aug-11 16:24 061 21.1
2020-Aug-11 16:19 067 21.7
2020-Aug-11 16:14 123 0 21.7
2020-Aug-11 16:09 111 1 21.7
2020-Aug-11 16:04 069 1 21.7
2020-Aug-11 15:59 159 0 22.2
2020-Aug-11 15:54 142 1 22.2
2020-Aug-11 15:49 107 0 22.2
2020-Aug-11 15:44 148 0 22.2
2020-Aug-11 15:39 085 0 22.2
2020-Aug-11 15:34 057 1 22.2
2020-Aug-11 15:29 096 3 22.2
2020-Aug-11 15:24 123 2 22.8
2020-Aug-11 15:19 119 1 23.3
2020-Aug-11 15:14 130 2 23.9
2020-Aug-11 15:09 119 3 24.4
2020-Aug-11 14:59 136 1 26.1
2020-Aug-11 14:49 080 1 25.6
2020-Aug-11 14:44 097 2 25.6
2020-Aug-11 14:39 114 2 25.6
2020-Aug-11 14:34 066 1 25.6
2020-Aug-11 14:29 153 1 26.1
2020-Aug-11 14:24 128 1 26.7
2020-Aug-11 14:19 119 0 27.2
2020-Aug-11 14:14 146 1 27.8
2020-Aug-11 14:09 119 2 27.8
2020-Aug-11 14:04 104 1 27.8
2020-Aug-11 13:59 158 2 27.8
2020-Aug-11 13:54 145 3 27.8
2020-Aug-11 13:49 090 2 27.2
2020-Aug-11 13:44 151 2 27.2
2020-Aug-11 13:39 120 0 27.2
2020-Aug-11 13:34 111 0 27.2
2020-Aug-11 13:29 034 0 27.2
2020-Aug-11 13:24 163 0 27.2
2020-Aug-11 13:19 144 1 26.7
2020-Aug-11 13:14 005 1 26.1
2020-Aug-11 13:09 150 0 26.1
2020-Aug-11 13:04 138 0 25.6
2020-Aug-11 12:59 151 0 25.0
2020-Aug-11 12:54 005 0 24.4
2020-Aug-11 12:49 320 24.4
2020-Aug-11 12:44 320 23.9
2020-Aug-11 12:39 321 23.3
2020-Aug-11 12:34 026 0 23.3
2020-Aug-11 12:29 021 0 23.3
2020-Aug-11 12:24 005 0 23.3
2020-Aug-11 12:19 042 23.3
2020-Aug-11 12:14 092 22.8
2020-Aug-11 12:09 092 22.8
2020-Aug-11 12:04 203 22.8
2020-Aug-11 11:59 252 22.2
2020-Aug-11 11:54 269 21.7
2020-Aug-11 11:49 261 21.7
2020-Aug-11 11:44 139 0 21.7
2020-Aug-11 11:39 132 0 21.1
2020-Aug-11 11:34 126 20.6
2020-Aug-11 11:29 115 20.6
2020-Aug-11 11:24 066 0 20.0
2020-Aug-11 11:19 065 0 20.0
2020-Aug-11 11:14 090 0 19.4
2020-Aug-11 11:09 355 19.4
2020-Aug-11 11:04 024 0 19.4
2020-Aug-11 10:59 306 0 19.4
2020-Aug-11 10:54 078 0 19.4
2020-Aug-11 10:49 151 1 19.4
2020-Aug-11 10:44 145 1 19.4
2020-Aug-11 10:39 126 1 20.0
2020-Aug-11 10:34 121 0 20.0
2020-Aug-11 10:29 162 20.0
2020-Aug-11 10:24 060 20.0
2020-Aug-11 10:19 057 0 20.6
2020-Aug-11 10:14 005 2 20.6
2020-Aug-11 10:09 219 2 21.1
2020-Aug-11 10:04 078 2 21.7
2020-Aug-11 09:59 092 0 21.7
2020-Aug-11 09:54 153 0 22.2
2020-Aug-11 09:49 083 0 22.2
2020-Aug-11 09:44 084 0 22.2
2020-Aug-11 09:39 096 22.2
2020-Aug-11 09:34 092 0 22.2
2020-Aug-11 09:29 071 0 22.8
2020-Aug-11 09:24 094 0 22.8
2020-Aug-11 09:19 128 0 23.3
2020-Aug-11 09:14 154 23.3
2020-Aug-11 09:09 146 23.9
2020-Aug-11 09:04 147 23.9
2020-Aug-11 08:59 147 23.9
2020-Aug-11 08:54 147 1 24.4
2020-Aug-11 08:49 150 1 24.4
2020-Aug-11 08:44 143 25.0
2020-Aug-11 08:39 098 0 25.0
2020-Aug-11 08:34 138 2 25.0
2020-Aug-11 08:29 150 2 25.0
2020-Aug-11 08:24 157 0 25.0
2020-Aug-11 08:19 108 24.4
2020-Aug-11 08:14 084 24.4
2020-Aug-11 08:09 143 23.9
2020-Aug-11 08:05 323 23.3
2020-Aug-11 07:59 324 23.3
2020-Aug-11 07:54 323 22.8
2020-Aug-11 07:49 323 22.2
2020-Aug-11 07:44 322 21.7
2020-Aug-11 07:39 322 21.7
2020-Aug-11 07:34 322 21.7
2020-Aug-11 07:29 322 21.7
2020-Aug-11 07:24 322 21.7
2020-Aug-11 07:19 322 21.7
2020-Aug-11 07:14 322 21.7
2020-Aug-11 07:09 322 21.7
2020-Aug-11 07:04 322 21.7
2020-Aug-11 06:59 322 21.7
2020-Aug-11 06:54 322 21.7
2020-Aug-11 06:49 322 21.7
2020-Aug-11 06:44 322 21.7
2020-Aug-11 06:39 322 21.7
2020-Aug-11 06:34 332 21.7
2020-Aug-11 06:29 331 0 21.1
2020-Aug-11 06:24 331 0 21.1
2020-Aug-11 06:19 348 21.1
2020-Aug-11 06:14 321 0 21.1
2020-Aug-11 06:09 322 0 21.1
2020-Aug-11 06:04 331 21.1
2020-Aug-11 05:59 326 0 21.1
2020-Aug-11 05:54 319 0 21.1
2020-Aug-11 05:49 323 21.1
2020-Aug-11 05:44 318 21.1
2020-Aug-11 05:39 324 21.7
2020-Aug-11 05:34 325 21.7
2020-Aug-11 05:29 326 21.7
2020-Aug-11 05:24 327 21.7
2020-Aug-11 05:19 325 21.7
2020-Aug-11 05:14 323 21.7
2020-Aug-11 05:09 323 21.7
2020-Aug-11 05:04 325 21.7
2020-Aug-11 04:59 324 21.7
2020-Aug-11 04:54 325 21.7
2020-Aug-11 04:49 327 21.7
2020-Aug-11 04:44 337 21.7
2020-Aug-11 04:39 023 21.7
2020-Aug-11 04:34 330 21.7
2020-Aug-11 04:29 330 21.7
2020-Aug-11 04:24 330 21.7
2020-Aug-11 04:19 331 21.7
2020-Aug-11 04:14 331 21.1
2020-Aug-11 04:09 336 21.1
2020-Aug-11 04:04 337 21.1
2020-Aug-11 03:59 339 21.1
2020-Aug-11 03:54 340 21.1
2020-Aug-11 03:49 340 21.7
2020-Aug-11 03:44 340 21.7
2020-Aug-11 03:39 340 21.7
2020-Aug-11 03:34 340 21.7
2020-Aug-11 03:29 340 21.7
2020-Aug-11 03:24 340 21.7
2020-Aug-11 03:19 340 22.2
2020-Aug-11 03:14 340 22.2
2020-Aug-11 03:09 340 22.2
2020-Aug-11 03:04 340 22.2
2020-Aug-11 02:54 340 22.8
2020-Aug-11 02:49 341 22.8
2020-Aug-11 02:44 341 22.8
2020-Aug-11 02:39 341 22.8
2020-Aug-11 02:34 341 22.8
2020-Aug-11 02:29 341 22.8
2020-Aug-11 02:24 341 22.8
2020-Aug-11 02:19 341 22.8
2020-Aug-11 02:14 341 22.8
2020-Aug-11 02:09 341 23.3
2020-Aug-11 02:04 341 23.3
2020-Aug-11 01:59 341 23.3
2020-Aug-11 01:54 341 23.3
2020-Aug-11 01:49 341 23.3
2020-Aug-11 01:44 341 23.3
2020-Aug-11 01:39 342 23.3
2020-Aug-11 01:34 327 23.3
2020-Aug-11 01:29 327 23.3
2020-Aug-11 01:24 321 22.8
2020-Aug-11 01:19 321 22.8
2020-Aug-11 01:14 323 22.8
2020-Aug-11 01:09 325 22.8
2020-Aug-11 01:04 325 22.8
2020-Aug-11 00:59 325 22.8
2020-Aug-11 00:54 325 22.8
2020-Aug-11 00:49 325 22.8
2020-Aug-11 00:44 320 23.3
2020-Aug-11 00:39 319 23.3
2020-Aug-11 00:34 319 23.3
2020-Aug-11 00:29 320 23.3
2020-Aug-11 00:24 323 23.3
2020-Aug-11 00:19 323 23.3
2020-Aug-11 00:14 324 23.3
2020-Aug-11 00:09 323 23.3
2020-Aug-11 00:04 328 23.3
2020-Aug-10 23:59 329 23.3
2020-Aug-10 23:54 332 23.9
2020-Aug-10 23:49 332 23.9
2020-Aug-10 23:44 332 23.9
2020-Aug-10 23:39 332 0 23.9
2020-Aug-10 23:34 342 1 23.9
2020-Aug-10 23:29 325 1 24.4
2020-Aug-10 23:19 011 0 24.4
2020-Aug-10 23:14 327 0 25.0
2020-Aug-10 23:09 327 0 25.0
2020-Aug-10 23:04 314 0 25.0
2020-Aug-10 22:59 336 1 25.0
2020-Aug-10 22:54 322 2 25.0
2020-Aug-10 22:49 347 2 25.0
2020-Aug-10 22:39 329 1 24.4
2020-Aug-10 22:34 324 0 25.0
2020-Aug-10 22:29 327 25.0
2020-Aug-10 22:24 326 25.0
2020-Aug-10 22:19 328 25.0
2020-Aug-10 22:14 328 2 25.6
2020-Aug-10 22:09 329 3 25.6
2020-Aug-10 22:04 339 3 25.6
2020-Aug-10 21:59 351 4 25.6
2020-Aug-10 21:54 345 4 25.6
2020-Aug-10 21:49 347 2 25.6
2020-Aug-10 21:44 350 0 25.6
2020-Aug-10 21:39 348 0 25.6
2020-Aug-10 21:34 333 1 25.6
2020-Aug-10 21:29 332 2 25.6
2020-Aug-10 21:24 336 2 25.6
2020-Aug-10 21:19 349 1 25.6
2020-Aug-10 21:14 346 2 25.6
2020-Aug-10 21:09 330 1 25.6
2020-Aug-10 21:04 331 0 26.1
2020-Aug-10 20:59 347 26.1
2020-Aug-10 20:54 360 26.7
2020-Aug-10 20:44 340 0 27.2
2020-Aug-10 20:39 335 0 27.2
2020-Aug-10 20:34 328 0 27.2
2020-Aug-10 20:29 336 0 27.8
2020-Aug-10 20:24 347 2 27.8
2020-Aug-10 20:19 336 2 27.8
2020-Aug-10 20:14 342 2 27.8
2020-Aug-10 20:09 329 1 27.8
2020-Aug-10 20:04 333 1 27.2
2020-Aug-10 19:59 336 1 27.2
2020-Aug-10 19:54 336 0 27.2
2020-Aug-10 19:49 328 27.2
2020-Aug-10 19:44 316 27.8
2020-Aug-10 19:39 350 0 27.8
2020-Aug-10 19:34 333 0 27.8
2020-Aug-10 19:29 333 27.2
2020-Aug-10 19:24 322 27.8
2020-Aug-10 19:19 322 27.8
2020-Aug-10 19:14 322 27.8
2020-Aug-10 19:09 322 28.3
2020-Aug-10 19:04 322 28.3
2020-Aug-10 18:59 322 28.3
2020-Aug-10 18:54 322 28.9
2020-Aug-10 18:49 322 28.9
2020-Aug-10 18:44 323 28.9
2020-Aug-10 18:39 323 29.4
2020-Aug-10 18:34 323 29.4
2020-Aug-10 18:29 323 29.4
2020-Aug-10 18:24 320 30.0
2020-Aug-10 18:19 307 30.0
2020-Aug-10 18:14 305 30.0
2020-Aug-10 18:09 302 30.6
2020-Aug-10 18:04 302 30.6
2020-Aug-10 17:59 310 30.6
2020-Aug-10 17:54 304 31.1
2020-Aug-10 17:49 290 31.1
2020-Aug-10 17:44 315 31.7
2020-Aug-10 17:39 313 32.2
2020-Aug-10 17:34 154 32.8
2020-Aug-10 17:29 153 32.8
2020-Aug-10 17:24 192 32.8
2020-Aug-10 17:19 171 32.8
2020-Aug-10 17:14 232 33.3
2020-Aug-10 17:09 189 33.3
2020-Aug-10 17:04 180 32.8
2020-Aug-10 16:54 202 0 32.8
2020-Aug-10 16:49 196 2 32.8
2020-Aug-10 16:44 181 2 32.8
2020-Aug-10 16:39 201 2 32.8
2020-Aug-10 16:34 185 1 33.3
2020-Aug-10 16:29 127 0 33.3
2020-Aug-10 16:24 126 2 33.3
2020-Aug-10 16:19 144 4 32.8
2020-Aug-10 16:14 175 3 32.8
2020-Aug-10 16:09 208 2 32.8
2020-Aug-10 16:04 186 4 33.3
2020-Aug-10 15:59 161 5 33.3
2020-Aug-10 15:54 132 3 33.9
2020-Aug-10 15:49 188 0 33.9
2020-Aug-10 15:44 094 0 33.9
2020-Aug-10 15:39 170 0 33.9
2020-Aug-10 15:34 123 2 33.9
2020-Aug-10 15:29 121 5 33.3
2020-Aug-10 15:24 135 4 33.3
2020-Aug-10 15:19 200 2 33.3
2020-Aug-10 15:14 204 1 33.3
2020-Aug-10 15:09 088 2 33.3
2020-Aug-10 15:04 145 2 33.9
2020-Aug-10 14:59 146 2 33.9
2020-Aug-10 14:54 137 2 33.9
2020-Aug-10 14:49 182 1 33.3
2020-Aug-10 14:44 119 0 33.3
2020-Aug-10 14:39 173 1 33.3
2020-Aug-10 14:34 175 1 32.8
2020-Aug-10 14:29 060 3 32.8
2020-Aug-10 14:24 178 4 32.8
2020-Aug-10 14:19 189 5 32.8
2020-Aug-10 14:14 220 4 32.8
2020-Aug-10 14:09 161 2 32.8
2020-Aug-10 14:04 187 1 32.8
2020-Aug-10 13:59 329 1 32.8
2020-Aug-10 13:54 163 2 32.8
2020-Aug-10 13:49 192 4 32.8
2020-Aug-10 13:44 238 3 32.8
2020-Aug-10 13:39 168 1 32.8
2020-Aug-10 13:34 190 1 32.8
2020-Aug-10 13:29 153 2 32.8
2020-Aug-10 13:24 142 4 32.8
2020-Aug-10 13:19 151 3 32.8
2020-Aug-10 13:14 154 2 32.8
2020-Aug-10 13:09 149 2 32.8
2020-Aug-10 13:04 201 2 32.8
2020-Aug-10 12:59 149 4 32.8
2020-Aug-10 12:54 143 3 32.8
2020-Aug-10 12:49 145 2 32.8
2020-Aug-10 12:44 159 3 32.8
2020-Aug-10 12:39 161 1 32.8
2020-Aug-10 12:34 172 0 32.8
2020-Aug-10 12:29 142 1 32.2
2020-Aug-10 12:24 138 0 32.2
2020-Aug-10 12:19 150 31.7
2020-Aug-10 12:14 068 32.2
2020-Aug-10 12:09 067 0 32.2
2020-Aug-10 12:04 134 1 31.7
2020-Aug-10 11:59 121 0 31.7
2020-Aug-10 11:54 145 0 31.7
2020-Aug-10 11:49 106 31.7
2020-Aug-10 11:44 119 31.7
2020-Aug-10 11:39 106 31.7
2020-Aug-10 11:34 136 0 31.7
2020-Aug-10 11:29 143 0 31.7
2020-Aug-10 11:24 040 0 31.1
2020-Aug-10 11:19 119 0 31.1
2020-Aug-10 11:14 136 0 31.7
2020-Aug-10 11:09 055 31.1
2020-Aug-10 11:04 114 31.1
2020-Aug-10 10:59 132 0 31.1
2020-Aug-10 10:54 150 0 30.6
2020-Aug-10 10:49 127 30.6
2020-Aug-10 10:44 123 0 30.6
2020-Aug-10 10:39 130 0 30.6
2020-Aug-10 10:34 082 0 30.6
2020-Aug-10 10:29 123 0 30.0
2020-Aug-10 10:24 139 0 30.0
2020-Aug-10 10:19 151 1 30.0
2020-Aug-10 10:14 134 1 30.0
2020-Aug-10 10:09 118 1 30.0
2020-Aug-10 10:04 080 0 30.0
2020-Aug-10 09:54 125 0 30.0
2020-Aug-10 09:49 134 0 29.4
2020-Aug-10 09:44 134 0 29.4
2020-Aug-10 09:39 153 0 29.4
2020-Aug-10 09:34 150 0 29.4
2020-Aug-10 09:29 128 0 29.4
2020-Aug-10 09:24 142 0 28.9
2020-Aug-10 09:19 117 0 28.9
2020-Aug-10 09:14 117 0 28.3
2020-Aug-10 09:09 113 28.3
2020-Aug-10 09:04 111 28.3
2020-Aug-10 08:59 111 28.3
2020-Aug-10 08:54 109 27.8
2020-Aug-10 08:49 355 27.8
2020-Aug-10 08:44 327 27.8
2020-Aug-10 08:39 325 27.8
2020-Aug-10 08:34 325 27.2
2020-Aug-10 08:29 325 27.2
2020-Aug-10 08:24 324 27.2
2020-Aug-10 08:19 324 26.7
2020-Aug-10 08:14 323 26.7
2020-Aug-10 08:09 320 26.7
2020-Aug-10 08:04 319 26.7
2020-Aug-10 07:59 319 26.7
2020-Aug-10 07:54 335 26.7
2020-Aug-10 07:49 334 26.1
2020-Aug-10 07:44 335 26.1
2020-Aug-10 07:39 334 26.1
2020-Aug-10 07:34 334 25.6
2020-Aug-10 07:29 334 25.0
2020-Aug-10 07:24 335 24.4
2020-Aug-10 07:19 334 24.4
2020-Aug-10 07:14 331 23.9
2020-Aug-10 07:09 331 23.9
2020-Aug-10 07:04 333 0 23.9
2020-Aug-10 06:59 340 23.3
2020-Aug-10 06:54 328 23.3
2020-Aug-10 06:49 323 22.8
2020-Aug-10 06:44 325 22.8
2020-Aug-10 06:39 333 22.2
2020-Aug-10 06:34 334 22.2
2020-Aug-10 06:29 335 22.2
2020-Aug-10 06:24 349 0 21.7
2020-Aug-10 06:19 334 0 21.7
2020-Aug-10 06:14 355 21.7
2020-Aug-10 06:09 331 21.7
2020-Aug-10 06:04 331 21.1
2020-Aug-10 05:59 351 21.1
2020-Aug-10 05:54 355 21.1
2020-Aug-10 05:49 355 21.1
2020-Aug-10 05:44 355 21.7
2020-Aug-10 05:39 355 21.7
2020-Aug-10 05:34 355 21.7
2020-Aug-10 05:29 355 21.7
2020-Aug-10 05:24 355 21.7
2020-Aug-10 05:19 355 22.2
2020-Aug-10 05:14 355 22.2
2020-Aug-10 05:09 355 0 22.2
2020-Aug-10 05:04 355 0 22.2